GFSMA_700_spd_102.txt.gz
Wind_Speed
9 9 9 11 13 16 20 21 21 22 24 25 28 21 20 24 25 25 27 25 17 18 19 18 17 17 15 14 13 12 12 12 11 12 12 12 12 11 8 6 5 5 5
12 11 11 10 11 13 16 22 23 23 24 24 26 27 24 28 28 26 25 24 20 20 20 20 19 18 16 15 14 13 12 12 12 12 12 12 12 11 9 8 7 7 7
17 16 16 15 15 14 15 20 24 26 26 27 28 26 26 24 34 31 30 24 24 24 22 22 20 19 17 17 15 14 13 13 13 13 13 13 13 11 10 9 8 9 8
24 22 21 20 19 19 18 20 22 25 28 29 29 29 28 25 36 35 30 26 24 23 24 23 22 20 19 19 16 15 14 14 14 14 14 13 13 12 11 10 10 10 10
28 26 25 23 21 21 20 22 23 26 28 28 30 28 25 30 38 38 29 27 24 26 26 25 23 22 21 21 18 17 16 15 15 15 14 14 14 13 13 12 11 10 10
31 29 28 26 25 24 22 25 26 26 29 30 30 31 31 33 42 37 30 29 19 23 26 26 25 23 22 21 20 19 17 17 17 17 16 16 15 14 13 12 11 11 11
32 30 30 28 28 27 24 27 26 27 28 27 30 24 31 33 38 35 34 35 26 25 25 27 26 24 24 23 20 19 18 18 19 18 18 17 16 15 14 13 12 12 11
32 30 31 30 30 29 27 28 28 27 28 28 31 29 29 32 39 33 38 36 28 28 27 28 28 26 25 24 23 23 21 20 20 20 19 18 17 16 15 14 12 12 12
34 32 31 33 32 30 29 29 29 28 27 29 30 33 37 41 39 38 36 37 32 29 29 29 27 26 26 25 25 23 23 23 23 21 21 20 18 17 16 14 12 12 15
35 33 32 32 31 32 32 31 30 28 28 30 29 26 35 39 46 43 42 37 35 31 30 29 29 28 27 27 26 25 24 22 23 22 22 21 19 18 16 14 14 16 21
37 33 31 32 31 33 33 34 30 30 30 33 30 31 36 42 44 44 40 35 36 32 29 31 30 28 27 27 27 25 25 23 23 23 22 21 20 18 16 16 19 23 25
33 31 31 31 31 34 34 33 31 30 31 33 33 32 33 41 42 47 42 33 29 30 31 32 31 28 27 28 28 26 26 25 24 24 23 22 21 21 19 19 23 23 24
30 29 28 29 31 34 33 33 32 31 33 34 32 31 38 48 36 45 37 32 28 29 32 31 29 27 27 27 27 26 27 27 27 26 25 24 24 24 24 25 25 23 21
28 26 26 31 33 32 33 33 34 32 35 35 37 37 36 47 41 45 40 36 32 31 32 29 29 29 28 27 26 26 27 26 26 26 26 27 28 27 28 28 28 27 26
25 24 31 33 32 33 32 32 30 33 34 38 33 39 46 43 50 39 41 38 32 31 32 30 31 28 27 29 28 28 27 26 27 28 28 29 28 30 31 30 32 34 32
23 27 31 31 31 31 31 30 29 32 39 40 37 43 44 46 45 47 44 36 30 33 28 25 24 23 25 29 25 24 23 25 27 29 28 29 30 33 34 37 36 33 31
25 29 29 29 29 30 30 28 31 31 38 34 39 49 43 45 42 42 47 37 36 38 29 26 27 25 26 28 29 32 26 31 30 32 38 32 34 35 35 32 35 37 36
28 27 26 27 27 27 25 27 31 37 37 43 45 39 37 41 54 45 45 37 42 34 30 30 32 29 34 29 33 31 23 22 31 26 29 30 31 32 33 32 30 29 31
26 24 24 25 26 26 24 26 32 28 34 31 37 42 43 41 53 52 43 40 35 30 34 32 27 30 33 31 26 24 26 28 35 36 28 30 27 26 30 30 31 31 35
24 22 22 23 24 20 25 29 25 21 24 34 35 30 40 43 52 51 47 43 44 38 35 32 40 35 40 37 30 33 36 34 38 34 32 32 32 33 34 32 33 33 36
22 21 19 18 15 16 19 20 24 25 29 25 30 32 37 40 43 51 45 42 45 45 50 46 50 45 45 33 38 38 35 34 36 36 35 36 37 36 37 38 40 38 43
22 20 17 14 13 9 7 11 16 20 25 25 33 28 31 36 37 41 38 41 38 46 45 37 37 36 30 32 34 37 36 32 35 38 39 38 43 36 40 39 37 42 41
21 16 14 15 12 11 12 9 15 19 20 25 28 23 30 37 39 33 38 41 32 29 29 32 32 32 34 35 36 35 32 40 41 39 39 43 40 43 44 47 39 42 40
20 13 13 17 17 16 15 12 12 12 18 19 23 34 35 36 35 37 40 26 32 30 29 27 29 33 34 33 33 37 37 34 37 40 44 44 45 44 42 45 47 48 49
23 18 15 14 13 13 14 14 14 11 16 17 17 26 42 42 39 34 34 28 29 25 28 28 28 33 30 31 34 36 38 41 40 46 44 41 45 42 43 44 47 49 48
28 24 27 26 24 21 22 21 20 18 19 17 14 26 24 19 19 28 25 24 29 25 28 31 30 29 34 33 34 38 40 41 46 45 45 43 44 47 42 45 48 48 48

GFSMA_700_spd_105.txt.gz
Wind_Speed
10 11 9 8 8 9 10 14 17 20 21 24 25 27 27 22 19 27 25 25 26 22 23 21 18 17 16 15 13 11 10 10 10 10 10 11 11 10 9 8 6 5 4
13 13 12 10 9 8 8 9 14 19 22 24 24 26 23 23 20 21 26 28 27 22 18 18 18 18 18 16 15 12 11 11 11 12 12 12 12 12 10 8 7 6 5
17 16 16 15 13 12 13 13 13 16 23 26 26 27 25 26 26 22 28 29 28 25 22 21 21 20 19 18 16 14 13 13 13 13 13 14 13 13 11 9 8 8 8
24 21 20 19 18 17 18 17 16 17 19 24 25 27 27 29 29 27 28 29 28 25 25 24 22 21 20 19 17 17 15 15 14 14 14 14 14 13 11 10 9 9 8
29 26 24 23 22 21 21 20 19 20 21 23 25 28 29 29 29 29 28 34 31 27 22 24 24 23 21 21 18 18 17 17 16 16 16 15 15 13 13 12 11 10 10
32 30 29 28 27 25 25 23 22 23 23 24 26 28 29 30 31 29 27 37 34 30 26 29 26 25 23 22 20 19 18 18 18 17 17 16 16 15 14 13 12 11 10
36 34 33 31 30 29 26 26 26 26 26 25 25 29 31 33 34 35 37 38 36 32 27 30 28 27 25 23 22 20 20 20 20 20 19 18 18 17 16 15 14 13 11
32 35 36 33 32 30 29 29 28 27 28 26 27 29 29 27 27 34 32 37 37 30 26 25 27 27 25 24 23 23 23 22 23 23 20 19 18 18 17 16 14 13 11
27 31 36 35 31 31 30 29 30 30 30 27 26 29 32 34 31 28 32 38 38 34 31 27 26 27 27 27 26 27 25 24 24 23 21 21 21 19 18 17 15 14 14
25 27 33 32 30 30 30 30 30 31 32 30 27 29 34 36 33 33 38 39 38 41 31 29 28 27 27 28 28 27 27 26 25 25 24 23 22 21 20 18 17 16 16
26 27 32 33 32 31 31 31 30 32 34 32 30 31 33 34 31 29 40 44 42 45 36 31 30 28 29 30 30 29 29 28 26 26 25 25 24 23 22 20 18 19 18
32 34 31 34 34 32 33 31 32 34 35 33 32 34 33 36 31 33 35 39 39 35 42 38 33 32 31 31 30 30 30 28 28 27 27 26 25 25 24 22 23 21 20
35 37 31 33 34 34 32 32 34 36 36 34 33 34 33 35 36 33 36 44 46 42 41 35 33 32 31 32 30 31 31 30 29 29 29 27 27 25 25 26 25 23 24
36 30 28 30 33 32 31 34 36 38 36 35 35 35 31 34 36 34 38 39 42 37 41 38 32 33 33 31 31 32 32 31 30 30 30 29 28 28 28 28 27 27 28
32 28 29 28 28 29 31 36 38 37 36 36 37 36 36 36 34 35 38 37 41 45 33 42 34 33 31 32 32 33 32 32 30 30 31 31 30 30 30 30 31 31 34
29 28 27 28 28 30 33 37 37 36 37 36 36 36 37 40 37 36 43 38 42 42 36 33 37 31 32 32 32 33 33 32 31 30 31 31 31 32 32 34 36 36 38
26 28 30 28 29 32 34 35 36 35 35 33 36 41 47 44 39 42 42 47 42 45 41 36 37 31 30 31 33 34 32 31 29 28 30 30 32 34 36 39 39 40 38
26 27 28 30 30 32 34 35 34 31 38 36 37 47 43 42 43 43 44 42 50 45 45 47 48 35 30 29 28 28 28 27 29 36 32 33 35 36 40 46 49 41 38
23 26 29 27 31 33 33 31 32 33 31 37 38 44 40 36 38 44 43 45 54 50 47 37 34 36 32 33 31 34 37 38 42 42 36 37 33 29 31 31 34 33 33
25 25 27 28 31 30 27 29 26 31 34 38 42 44 39 44 47 42 42 45 52 51 49 41 40 40 39 37 38 34 38 38 29 34 32 33 31 32 33 31 30 34 38
23 25 30 31 27 27 22 19 22 28 33 35 31 35 29 32 35 40 41 44 55 50 44 44 44 44 37 40 39 30 33 31 35 37 38 34 36 35 35 37 37 40 37
27 29 29 27 24 21 17 16 19 20 22 24 19 27 31 38 28 35 44 38 58 54 40 42 43 43 38 46 39 41 41 44 45 46 40 39 38 36 38 38 39 41 43
23 25 27 24 20 15 15 16 17 16 18 19 20 22 29 29 31 31 37 44 51 43 40 38 41 37 44 44 45 46 43 37 39 40 43 39 38 40 40 42 46 42 41
29 25 20 18 18 13 19 18 18 20 21 19 20 18 21 26 26 29 39 43 49 50 46 42 41 42 44 47 45 39 37 38 41 44 36 36 42 41 38 45 50 48 49
26 25 20 18 16 16 21 17 15 18 16 17 13 19 26 22 37 29 34 36 38 33 33 40 37 37 36 31 34 35 38 37 37 38 38 42 44 45 45 50 49 49 48
26 22 26 22 22 19 14 16 18 18 21 16 16 16 24 24 21 28 27 33 37 30 40 28 31 31 30 31 31 28 31 35 33 35 41 44 45 45 48 49 47 48 46

GFSMA_700_spd_108.txt.gz
Wind_Speed
11 10 8 8 7 7 7 8 11 14 16 16 19 21 22 22 22 19 26 22 32 26 25 24 22 20 17 15 13 12 12 10 9 10 11 11 11 11 10 9 8 6 5
17 14 12 10 10 8 8 7 8 12 15 18 20 23 22 23 23 22 27 24 33 28 24 23 25 23 20 17 15 13 14 12 11 11 12 12 13 12 11 9 7 5 4
22 18 17 14 13 12 11 12 12 12 15 17 19 22 24 25 22 25 23 17 30 27 26 21 18 20 20 18 16 16 15 14 14 13 13 14 14 13 11 10 8 6 5
27 24 21 19 17 16 16 16 16 16 16 15 17 20 24 25 24 24 26 27 22 31 27 26 26 20 20 19 18 17 16 16 15 15 15 16 15 14 13 12 9 8 8
32 30 26 24 21 20 20 19 19 18 18 18 19 20 23 25 25 28 28 27 24 32 31 28 26 25 22 20 20 19 18 17 17 17 17 18 18 17 16 14 12 10 9
36 34 32 29 27 25 24 23 22 21 21 21 21 23 24 25 27 29 26 28 25 28 32 31 26 26 23 22 22 21 20 19 19 19 19 19 18 17 16 14 11 11 11
39 38 38 34 32 30 27 26 25 26 24 22 23 26 27 29 30 30 30 28 26 25 30 33 30 27 26 24 23 22 21 21 21 22 21 21 20 18 16 14 13 13 12
37 39 40 38 35 34 31 30 28 28 26 25 26 29 29 28 32 31 34 32 32 33 33 36 36 31 29 25 24 24 23 24 24 24 23 22 20 18 17 16 15 15 14
38 34 34 36 37 37 35 31 30 29 28 26 29 30 31 31 24 31 30 28 39 36 36 39 38 33 30 26 26 26 26 25 25 25 23 22 21 21 20 19 18 17 17
38 35 34 32 32 37 36 32 29 29 29 29 31 33 31 30 33 32 28 33 29 30 37 39 30 29 27 26 28 28 28 27 27 25 25 24 25 23 22 20 20 19 17
37 34 29 27 25 33 34 32 30 31 30 31 31 34 33 30 32 38 38 32 27 29 37 37 36 32 28 31 30 29 29 29 28 28 27 26 26 25 24 23 23 20 20
36 33 29 28 24 28 34 32 32 32 33 34 33 33 33 34 32 33 34 34 26 38 39 39 40 34 29 30 31 30 31 31 30 28 27 27 27 26 26 25 24 22 24
31 31 31 30 28 30 35 34 34 34 35 36 36 35 36 34 33 34 34 38 34 28 39 38 44 40 34 29 31 31 32 33 32 31 30 30 28 28 27 27 26 26 26
29 29 31 31 32 34 34 35 35 37 38 37 37 38 37 35 33 31 38 33 40 37 34 41 40 45 38 30 31 32 33 34 34 33 32 31 30 30 29 29 28 29 29
32 35 33 33 36 33 33 32 35 37 36 38 39 38 39 35 34 34 35 36 35 37 37 43 39 39 41 35 32 32 33 35 35 34 34 33 32 32 31 31 31 32 33
33 34 35 36 34 30 29 31 33 34 37 38 39 38 36 41 38 35 32 36 36 36 33 36 38 36 40 35 35 33 34 37 37 37 36 35 33 33 33 33 34 36 36
32 37 35 31 31 29 29 31 32 34 35 38 38 38 37 35 33 36 34 36 42 35 33 34 40 40 45 44 36 36 36 37 36 37 37 35 33 33 34 35 36 37 37
34 34 29 28 29 26 28 30 32 34 36 37 36 38 34 32 35 42 39 39 38 40 41 37 42 39 33 37 38 39 37 38 39 38 36 32 32 32 35 37 37 37 40
30 29 24 27 25 28 31 31 32 33 35 37 38 36 39 39 41 37 44 45 40 43 40 45 45 45 45 39 43 41 39 40 39 38 36 34 36 37 40 40 38 37 41
28 29 25 22 24 26 28 28 30 32 33 35 36 37 36 39 41 42 44 48 45 46 41 38 49 47 48 45 46 40 39 39 41 39 37 38 40 41 42 45 41 34 33
25 25 23 22 24 25 25 27 29 29 26 27 27 32 39 40 43 41 50 44 41 38 42 45 53 51 48 40 47 44 43 43 43 42 43 41 42 48 48 38 34 35 39
21 21 19 21 20 20 27 29 27 27 27 24 24 28 29 27 29 37 37 35 45 41 47 44 53 51 48 43 43 43 47 52 49 42 44 40 37 42 40 37 37 38 39
20 18 13 15 19 26 27 23 20 22 22 26 22 23 24 22 22 27 27 34 29 38 41 44 48 49 45 45 45 46 50 50 44 43 40 43 43 46 45 41 42 38 40
21 19 22 29 23 20 18 18 20 24 26 26 22 23 21 25 23 24 31 31 35 34 37 36 49 48 39 49 48 47 46 46 47 46 44 48 42 40 45 46 44 41 42
21 20 25 23 25 22 18 17 21 25 25 22 19 20 17 18 16 21 25 30 33 28 43 44 47 42 35 38 38 36 42 46 49 51 48 44 43 43 45 41 40 43 44
22 27 30 29 28 22 23 19 21 18 18 21 22 21 14 12 12 11 13 18 30 41 40 48 34 41 45 48 47 38 40 44 42 43 40 43 45 45 44 42 48 49 49

GFSMA_700_spd_111.txt.gz
Wind_Speed
14 13 12 11 10 9 10 10 10 10 11 12 13 15 17 18 18 18 20 19 21 19 27 25 26 25 19 16 14 13 13 13 13 14 14 14 14 14 13 12 10 9 7
20 17 16 15 13 12 11 11 10 11 11 12 12 13 17 19 20 22 21 22 24 24 32 30 29 28 23 19 17 15 14 14 15 16 16 15 15 14 13 12 11 10 9
27 24 20 19 17 15 14 14 13 12 12 12 12 12 15 19 22 23 23 24 24 27 28 29 27 28 26 24 20 18 17 16 17 17 17 16 16 15 14 14 13 11 9
33 30 26 23 22 19 18 17 16 15 15 15 13 13 16 18 22 25 24 23 27 22 32 36 24 26 21 20 20 20 19 18 18 18 19 18 18 17 16 15 13 11 9
34 35 32 27 25 24 23 21 20 20 19 19 17 17 18 20 21 26 25 25 29 25 24 35 29 26 27 21 21 21 20 19 19 19 19 19 19 18 17 16 14 11 10
28 38 37 34 30 28 28 26 25 24 22 22 21 21 23 23 21 23 24 29 32 25 21 21 32 30 29 25 23 22 22 22 21 21 21 21 20 20 19 17 15 14 12
30 34 39 38 36 34 31 30 29 28 26 25 25 26 26 24 24 23 26 26 33 25 20 26 36 33 31 27 25 23 23 24 24 23 22 22 21 21 21 20 18 16 14
31 32 37 42 41 38 36 35 34 32 30 27 27 27 30 27 26 27 25 27 24 27 27 32 28 38 35 28 26 25 25 26 26 24 24 23 23 23 22 21 20 19 16
36 38 38 39 42 41 40 38 36 34 33 29 28 29 31 30 27 28 25 25 30 24 30 30 29 30 34 34 28 28 27 27 27 25 25 24 25 24 23 23 22 20 18
42 40 39 39 37 41 43 41 40 39 36 32 31 29 32 32 32 34 29 24 24 22 30 31 40 37 35 37 28 29 30 29 28 27 26 26 25 25 26 25 24 22 20
40 39 41 40 38 36 37 36 39 39 38 34 31 31 31 35 33 35 32 26 24 30 26 29 26 35 40 37 34 31 33 30 31 30 29 28 27 27 27 27 26 23 23
42 39 38 40 36 32 31 27 31 37 37 36 32 32 34 34 35 33 32 35 29 27 31 23 28 31 41 41 31 31 33 33 33 33 31 29 29 30 29 29 27 26 25
39 38 39 39 38 31 32 28 27 33 37 36 35 34 35 34 35 32 35 36 36 32 26 32 30 35 39 37 35 33 36 34 35 35 34 32 31 31 31 30 29 28 27
38 38 37 38 37 32 33 32 33 34 38 38 37 38 37 36 35 36 35 36 36 32 33 28 24 32 43 39 39 30 31 36 36 37 36 34 33 32 32 31 31 30 30
37 37 36 37 36 34 33 34 33 34 37 38 38 39 38 38 37 39 39 37 36 37 38 31 32 32 41 46 42 44 32 34 37 38 37 36 36 34 33 33 33 32 33
35 37 36 37 39 38 33 35 35 33 37 36 37 38 38 39 41 40 39 33 36 37 41 37 30 29 33 40 48 48 36 33 37 39 39 38 37 36 36 36 35 35 35
33 36 39 41 38 34 33 37 34 33 35 34 34 35 39 40 41 39 38 36 38 36 38 38 31 33 33 37 45 45 44 40 39 40 41 40 39 39 39 38 37 37 37
34 34 36 36 34 35 38 35 34 32 31 32 34 38 38 38 38 36 34 32 35 36 36 41 40 32 33 40 40 44 47 40 41 41 42 40 41 42 42 40 39 39 39
32 33 33 32 33 32 32 34 30 28 30 32 33 35 33 35 37 37 36 37 36 37 41 42 38 38 36 39 43 48 50 44 44 41 42 42 41 41 40 39 39 38 38
31 29 29 28 29 26 31 30 29 30 30 30 31 31 30 31 35 42 38 42 43 44 38 43 41 44 39 42 47 50 49 50 54 47 44 43 41 40 40 40 40 39 39
31 33 33 35 33 32 29 28 29 28 28 28 29 28 30 33 32 36 40 47 45 41 41 43 40 42 43 46 53 51 49 45 50 48 45 44 44 43 42 42 41 40 45
27 33 37 33 29 31 27 27 26 26 27 26 27 27 27 29 31 32 35 39 46 46 49 48 43 52 42 43 52 54 50 47 48 50 46 45 44 45 46 42 45 48 46
37 29 20 25 28 26 25 24 25 24 23 24 26 26 27 28 29 32 32 33 38 42 39 46 45 50 46 49 50 56 59 46 46 49 46 45 46 46 49 50 50 50 53
19 18 19 21 19 18 19 19 19 23 25 26 25 22 22 23 24 23 28 30 34 32 46 33 42 39 34 42 49 53 53 48 47 47 50 54 55 52 50 50 44 44 45
10 13 18 19 20 20 20 29 36 26 28 28 24 23 21 24 24 21 15 21 21 27 27 36 38 34 38 40 43 50 51 47 47 43 48 48 54 51 54 50 52 49 47
16 20 19 20 24 26 24 26 27 26 26 28 24 23 24 22 22 16 21 21 24 29 32 31 36 25 41 32 42 43 39 40 47 54 53 51 51 56 52 51 50 50 47

GFSMA_700_spd_114.txt.gz
Wind_Speed
15 13 13 14 14 14 13 13 12 13 14 15 15 16 15 18 19 18 18 17 17 17 20 25 25 28 29 22 19 16 14 13 13 14 16 17 17 16 15 15 14 14 13
20 18 17 17 16 16 16 15 14 13 13 14 15 16 16 17 19 20 21 21 23 22 22 28 26 31 30 26 21 18 16 16 14 14 17 18 18 18 18 16 15 15 13
25 24 23 21 20 19 19 18 17 16 14 14 14 14 15 15 17 19 22 25 26 25 24 27 28 41 31 29 26 22 19 17 16 16 19 20 20 20 19 17 16 15 13
30 28 29 27 24 23 22 22 20 18 17 16 15 16 16 17 17 18 22 27 28 26 27 26 28 25 34 29 26 24 21 20 19 19 20 21 21 21 20 19 18 17 14
33 33 34 32 29 27 26 25 24 22 20 19 18 19 19 20 18 20 23 28 29 27 29 30 29 24 23 23 22 22 22 22 21 21 22 23 22 22 22 21 20 18 15
35 33 32 36 35 31 30 30 28 27 26 23 22 23 23 24 22 22 24 26 30 31 26 32 29 25 34 27 27 23 23 23 23 24 24 23 23 24 24 23 22 20 18
40 36 32 32 38 37 34 33 33 31 30 28 28 26 26 27 27 23 25 26 23 26 30 30 31 25 32 34 29 26 24 25 25 25 25 25 25 26 25 24 23 21 18
45 40 35 31 32 41 40 38 37 36 34 32 31 29 29 30 29 26 25 27 25 25 27 27 29 28 25 33 32 27 27 27 27 26 26 26 26 27 27 26 25 23 20
50 44 40 36 34 37 43 41 40 40 38 35 34 32 31 31 33 29 26 29 26 25 27 31 31 28 23 28 31 31 28 29 29 29 28 27 27 28 29 28 26 24 22
54 51 46 40 38 38 40 44 44 41 42 40 37 37 33 33 32 34 30 30 28 26 25 27 23 25 29 29 34 37 30 31 32 30 30 29 29 31 29 28 27 25 24
56 56 51 46 42 41 39 40 44 43 42 42 41 39 37 34 34 35 32 32 31 26 23 24 26 25 30 35 36 37 35 33 34 33 33 31 31 31 31 30 29 27 27
60 59 54 50 46 44 42 41 40 40 39 40 42 42 40 37 35 36 35 33 34 28 23 27 26 30 25 29 34 38 39 33 34 35 36 33 33 32 33 32 31 29 28
66 62 57 51 46 43 43 40 39 35 32 34 38 40 41 38 38 36 35 32 31 29 29 28 28 23 30 31 36 44 41 40 38 37 36 34 34 35 35 35 33 31 31
49 58 58 47 45 42 42 41 39 37 33 33 33 36 39 39 40 37 36 34 35 35 37 33 27 29 30 28 32 43 41 40 38 38 35 38 38 38 36 36 35 34 33
42 47 51 50 46 42 41 43 39 37 35 39 37 37 41 41 41 39 39 38 37 38 41 36 34 29 28 29 30 40 40 37 36 38 38 41 40 39 39 38 37 36 35
37 41 46 45 42 46 40 43 40 39 38 43 37 40 40 41 42 39 37 38 40 40 43 42 32 30 30 29 31 34 42 45 40 41 39 41 40 41 41 41 39 38 37
40 43 47 46 44 44 40 39 41 41 40 38 40 39 38 41 39 37 37 39 43 43 42 39 41 35 34 37 33 31 45 49 49 43 38 40 41 43 43 43 42 40 40
38 37 38 39 42 44 43 45 44 40 39 40 40 37 36 36 34 35 38 42 43 38 37 38 36 37 35 33 31 38 42 49 53 54 44 39 42 44 45 45 45 44 43
32 33 32 35 38 40 43 43 39 38 39 42 36 32 30 30 34 37 38 35 35 38 37 40 36 39 36 36 37 39 37 47 52 53 57 46 44 46 46 46 46 46 45
34 36 35 35 36 39 39 39 39 41 42 36 32 32 32 34 35 35 36 35 38 37 44 40 41 42 40 39 40 40 39 45 53 54 56 50 48 48 46 46 46 46 45
36 37 37 37 37 39 38 35 35 34 36 35 33 33 33 34 34 34 35 35 34 35 41 39 43 44 46 42 43 41 41 44 55 53 57 53 50 48 47 45 46 44 45
37 36 34 32 32 32 34 38 39 43 35 36 33 33 34 33 33 33 34 37 37 36 40 45 54 53 48 44 40 46 47 50 51 52 53 58 60 56 48 45 44 43 45
32 33 32 29 30 34 36 37 42 32 38 35 33 32 32 33 31 33 34 32 35 35 39 38 46 49 48 44 48 42 49 48 50 52 56 56 55 55 53 48 48 49 48
36 37 32 30 38 31 32 30 35 34 33 32 33 31 31 29 30 31 29 30 28 33 37 44 39 43 53 46 47 40 46 44 49 55 58 57 50 52 49 52 51 51 51
23 24 24 21 26 27 23 24 25 28 26 26 28 31 32 31 30 31 30 29 29 30 26 29 34 42 45 43 47 36 44 43 49 59 61 60 51 50 57 54 55 51 52
2 3 15 19 24 23 26 26 25 26 27 30 35 35 35 33 32 31 29 32 32 27 29 31 25 31 35 44 45 50 43 45 38 49 63 64 50 53 58 58 57 58 56

GFSMA_700_spd_117.txt.gz
Wind_Speed
18 16 14 14 15 16 14 14 16 17 16 16 16 14 15 15 16 19 21 17 16 15 14 17 22 25 26 27 24 22 18 16 15 15 13 15 16 17 18 17 17 15 14
22 20 18 16 16 16 17 17 17 17 17 17 16 14 15 15 17 17 21 19 19 22 21 19 22 23 26 35 28 26 21 18 15 16 16 17 18 20 20 19 18 16 15
26 24 22 21 18 18 18 21 20 20 18 17 16 14 13 14 16 14 17 21 21 23 25 25 25 27 26 34 33 30 25 19 17 18 19 19 20 21 21 20 19 18 17
31 30 28 26 24 22 20 22 23 23 21 20 18 17 16 15 15 16 17 20 22 24 25 28 28 26 26 26 29 27 25 23 20 21 21 21 21 21 22 21 20 20 18
36 35 35 33 30 29 25 24 26 26 25 24 22 21 19 18 18 18 18 20 22 24 30 27 31 29 31 22 30 26 24 25 23 23 23 23 23 23 23 23 22 22 21
40 38 40 38 36 35 32 28 29 29 28 27 25 25 23 23 22 21 20 22 24 24 24 29 32 33 32 26 19 29 26 25 25 25 25 24 24 25 25 25 25 24 22
46 44 41 40 38 36 37 34 33 33 32 32 29 29 28 27 26 24 24 24 26 24 26 26 29 33 29 28 29 35 25 24 26 27 27 25 25 26 27 27 26 26 24
50 47 45 42 39 34 35 40 38 36 35 36 35 33 32 31 29 29 28 27 28 26 27 27 29 28 30 26 26 38 29 27 26 27 28 27 28 28 28 28 28 28 26
55 51 47 46 44 40 38 37 42 42 39 39 39 37 34 34 34 33 32 29 29 28 26 28 30 28 28 32 31 36 32 30 27 29 31 31 29 29 29 29 30 30 29
59 54 52 51 50 46 41 38 38 43 43 42 41 40 37 37 35 31 36 34 29 31 27 27 28 24 24 23 26 27 31 33 32 30 31 32 32 32 32 32 32 32 31
62 57 56 57 54 51 45 41 39 39 44 46 44 41 40 38 39 39 39 39 35 32 31 28 26 26 25 25 24 27 28 31 34 30 31 33 34 34 33 33 33 32 32
64 61 61 60 59 54 51 44 42 42 41 42 44 45 43 40 40 42 41 41 41 37 33 30 26 23 26 28 33 28 33 34 36 36 32 34 36 36 36 33 33 34 34
57 59 61 63 60 57 54 51 48 45 42 42 45 44 39 39 37 41 43 42 42 37 34 32 26 28 27 28 31 29 30 36 36 39 38 36 38 38 39 34 36 36 36
50 48 55 57 63 60 57 54 50 45 43 43 43 34 31 32 31 36 42 44 42 41 36 33 32 27 27 29 27 31 34 34 43 42 41 38 40 39 40 38 36 38 38
46 46 43 53 57 66 58 55 51 49 45 45 45 38 38 30 31 35 39 40 40 39 40 34 33 37 29 29 30 32 32 31 42 50 45 44 39 40 42 38 38 40 40
46 43 44 48 50 56 61 52 50 47 46 45 40 41 37 35 38 40 42 41 40 39 39 34 38 38 34 27 29 31 32 31 33 43 48 43 43 43 45 41 41 42 42
44 43 40 41 44 45 52 53 50 49 46 44 44 41 43 40 42 44 42 41 43 41 43 37 39 38 36 36 31 33 35 32 32 41 44 45 43 42 44 44 44 44 44
42 36 36 35 37 40 45 49 50 49 47 42 45 45 37 44 43 44 38 41 40 37 37 40 39 38 37 34 34 34 36 39 39 38 52 49 45 44 43 45 46 46 46
37 35 34 33 33 40 43 48 47 50 47 44 45 39 43 45 44 41 34 35 35 36 36 35 37 38 39 36 35 32 34 38 38 41 42 49 50 49 46 46 47 48 47
36 32 33 35 36 41 46 46 47 48 47 47 42 39 49 45 40 42 36 33 37 37 38 39 42 42 42 42 41 37 38 38 41 44 43 53 57 56 56 47 45 47 49
30 31 33 35 37 39 40 41 42 46 48 47 45 48 48 46 43 37 37 38 38 38 39 40 41 41 41 42 46 42 40 43 43 45 40 45 53 60 60 57 52 47 49
31 31 30 31 30 30 34 38 44 45 43 42 46 42 40 39 38 37 39 39 37 38 38 40 42 42 43 42 39 43 49 46 46 43 43 44 50 57 62 60 62 53 50
30 33 36 41 40 35 36 37 35 36 37 40 41 41 39 36 37 39 38 37 37 38 39 37 39 40 40 37 44 48 46 46 49 45 42 49 47 55 59 57 62 63 54
33 30 33 34 38 37 32 32 37 33 31 37 47 46 44 44 43 38 37 36 37 37 35 36 37 36 37 37 43 45 44 45 42 43 43 46 52 47 54 61 64 64 63
6 10 12 19 26 28 36 33 37 42 43 43 35 36 38 38 39 35 34 37 37 36 35 36 36 39 38 39 42 39 41 46 48 48 45 48 49 50 58 64 64 62 55
19 16 8 4 2 13 25 23 33 31 29 29 28 31 34 35 34 36 34 34 36 36 37 36 37 35 31 28 34 43 41 47 41 44 49 40 42 46 51 59 62 67 56

GFSMA_700_spd_123.txt.gz
Wind_Speed
24 24 22 19 17 15 12 13 11 13 13 14 15 14 15 16 14 13 10 7 7 9 9 10 11 10 13 19 21 19 15 17 19 17 15 14 14 14 15 15 17 18 17
29 27 26 23 21 19 17 15 15 14 14 14 14 15 14 16 14 12 9 7 6 7 9 10 12 15 17 18 20 19 15 18 24 25 21 19 15 16 17 17 19 19 18
33 31 29 28 25 22 20 18 18 17 18 16 15 15 15 16 15 12 10 7 7 5 7 8 10 12 16 20 20 20 20 22 19 25 28 21 19 18 19 20 21 20 20
37 34 33 31 28 27 24 22 21 18 19 20 18 17 17 16 17 14 12 10 8 7 8 8 10 11 13 18 18 21 22 23 25 26 28 25 22 21 21 22 23 22 21
38 37 34 32 32 31 29 25 24 21 21 21 21 23 20 21 19 18 16 14 12 11 11 11 12 14 15 17 17 21 24 23 25 27 29 28 25 23 23 23 24 24 23
48 41 37 35 35 36 33 30 31 27 23 22 23 25 26 25 23 22 20 20 16 14 14 14 15 16 17 19 20 21 22 22 26 29 30 32 27 25 24 25 26 26 25
47 45 47 41 42 41 38 35 33 32 28 27 27 28 30 28 29 27 25 22 21 19 18 17 16 19 20 21 21 22 19 23 25 21 25 33 29 27 25 26 27 28 28
46 46 58 49 45 45 43 42 39 38 36 32 34 32 32 33 33 30 29 26 23 23 22 21 20 19 20 22 22 25 22 20 27 24 22 29 28 28 27 27 28 28 29
49 49 52 49 55 50 48 47 46 43 42 37 37 38 37 37 34 33 32 29 27 28 27 24 22 20 21 22 22 25 24 21 23 24 21 25 28 29 29 29 30 31 31
56 53 50 50 49 50 52 53 51 49 46 43 40 38 37 35 37 36 35 33 30 30 30 28 26 24 24 24 24 24 22 19 20 16 24 31 31 31 29 30 31 31 32
59 58 54 51 52 51 51 55 55 59 54 46 43 38 34 34 34 37 38 35 33 34 32 29 30 28 27 27 26 22 22 21 19 21 19 29 31 29 30 32 33 32 33
60 61 58 56 54 52 53 53 56 64 63 56 44 41 38 35 31 34 35 35 35 36 35 35 32 33 30 27 26 23 22 21 20 21 21 27 31 31 30 33 34 35 36
61 62 56 54 58 56 54 56 59 62 53 62 45 41 39 37 34 31 32 33 33 35 34 36 36 33 31 23 23 23 24 24 23 21 22 24 26 36 37 34 36 38 38
55 60 64 59 57 59 56 56 56 57 54 47 34 52 43 39 35 35 33 32 33 34 38 36 35 31 30 25 25 26 27 26 27 26 24 26 27 27 36 40 38 40 41
44 47 53 64 62 62 56 51 56 57 55 51 56 43 44 39 38 37 36 36 33 36 37 37 36 27 26 25 27 28 29 26 31 31 27 25 31 30 32 40 44 41 43
39 42 46 50 60 61 56 52 49 50 54 54 50 47 44 43 42 42 40 37 33 34 36 32 33 36 29 30 30 29 29 31 33 34 31 29 29 31 33 37 47 46 43
40 44 47 52 50 59 57 55 55 44 49 52 49 53 50 47 45 45 44 41 36 35 37 35 36 31 31 33 34 36 34 34 35 35 34 31 32 31 34 35 45 49 51
32 38 42 49 49 50 53 53 45 54 50 38 37 49 52 49 49 48 47 42 38 37 39 37 34 37 31 34 37 36 36 34 29 30 33 32 31 33 34 35 38 52 49
18 18 27 39 47 45 44 47 53 48 49 40 46 48 51 48 50 48 46 42 41 40 42 44 41 36 33 38 40 35 36 34 33 34 34 33 31 32 30 33 34 40 40
10 11 16 23 36 42 39 43 41 39 39 39 47 48 51 47 48 49 45 43 42 44 44 43 37 34 39 38 35 33 35 34 37 31 30 32 35 39 35 33 35 34 52
17 15 17 21 26 31 38 36 39 39 34 34 45 41 43 51 48 51 45 46 46 44 44 45 45 46 45 42 38 38 38 36 37 37 38 30 32 35 37 39 36 42 42
19 24 22 26 30 32 36 29 38 44 42 43 44 47 49 45 47 49 48 48 48 45 47 48 46 38 41 44 40 41 39 39 41 35 36 32 31 33 35 37 42 39 44
11 12 6 28 33 42 33 24 22 31 38 48 39 41 33 39 44 44 48 51 46 46 45 48 58 43 38 40 43 40 40 40 40 37 38 33 31 31 38 40 49 43 45
41 40 37 36 17 12 12 17 13 23 24 27 34 28 35 43 42 47 52 49 50 55 46 43 44 42 40 41 40 41 41 40 39 37 37 38 34 35 34 39 47 43 46
37 39 39 39 38 34 30 25 17 1 18 11 18 22 33 28 25 34 42 39 37 32 39 38 31 41 50 44 40 40 41 40 39 36 36 40 36 35 36 37 39 39 42
35 34 32 31 29 29 31 30 29 29 25 18 15 11 7 9 16 20 25 28 33 38 45 38 37 42 39 47 45 44 41 39 39 39 35 35 33 35 37 37 36 40 40

GFSMA_700_spd_129.txt.gz
Wind_Speed
38 35 34 34 32 29 26 25 25 24 25 25 25 23 21 19 19 17 15 15 15 14 15 15 13 13 11 11 10 11 13 16 16 18 16 13 14 14 13 13 15 16 18
41 39 39 37 36 35 33 30 28 27 26 27 26 25 24 21 19 18 15 15 15 15 15 16 14 14 13 14 11 10 13 16 15 15 15 14 13 15 19 14 16 18 19
46 41 43 44 40 39 39 36 34 31 30 30 28 27 27 23 19 19 17 15 15 15 15 16 14 14 12 11 10 10 11 15 16 17 18 19 19 22 20 20 17 20 21
50 56 54 54 50 43 41 41 40 38 34 32 30 27 27 24 22 20 19 17 17 14 12 12 14 13 11 10 10 10 10 11 14 16 18 21 22 23 20 21 21 21 23
43 59 49 65 54 51 45 43 42 41 39 36 34 31 29 27 24 24 22 20 18 18 15 13 13 12 12 11 11 11 12 12 13 15 19 21 23 23 23 23 24 24 24
47 48 51 42 60 64 52 51 45 42 42 40 37 36 33 32 30 28 25 24 23 21 21 19 16 12 12 12 12 13 14 14 14 16 18 22 20 26 24 24 27 27 25
50 52 53 50 42 55 63 51 44 46 42 40 37 39 37 35 33 33 31 30 27 25 24 23 21 17 15 14 15 15 14 17 16 16 20 21 24 21 23 27 29 29 28
53 49 52 52 51 47 52 53 58 48 46 44 39 37 37 38 38 36 37 34 31 29 28 26 23 20 18 17 17 18 17 17 17 17 19 21 21 20 17 24 28 30 29
58 55 52 54 54 52 41 45 65 58 47 48 43 40 43 43 37 40 39 37 35 34 31 29 27 25 23 20 19 20 20 19 19 18 18 18 22 17 23 24 26 30 30
62 60 56 52 55 52 45 32 53 61 57 49 47 45 44 48 44 44 42 39 35 35 35 33 30 29 27 24 23 22 24 22 22 20 18 17 18 23 17 25 29 30 29
63 58 55 51 53 55 53 52 50 56 62 40 62 47 46 45 46 48 43 40 37 35 35 36 34 33 31 29 26 25 24 26 25 24 20 18 15 19 20 23 28 32 28
55 52 51 50 51 55 56 54 49 43 54 42 46 54 52 50 55 52 46 45 45 41 37 35 33 31 31 30 28 27 27 26 27 26 24 20 18 16 20 20 28 31 30
49 48 46 49 50 52 55 56 54 52 55 54 54 57 59 58 56 56 55 53 48 44 44 36 33 32 33 31 28 29 28 27 27 26 25 23 21 18 17 16 27 35 34
42 43 44 45 48 49 52 55 57 58 58 57 56 55 57 58 55 57 42 68 62 50 43 37 33 33 31 30 27 26 28 29 27 27 27 26 24 22 19 18 19 27 33
37 37 39 41 44 46 49 51 55 57 61 61 59 56 52 52 57 52 40 56 45 64 45 40 35 33 32 28 28 28 29 31 28 26 28 30 27 25 24 21 22 28 29
29 29 30 34 37 41 43 49 52 57 58 59 60 59 53 49 47 40 28 28 40 40 46 42 37 34 32 30 30 30 31 31 30 27 28 31 29 28 28 27 23 26 32
16 20 21 27 31 34 35 40 46 52 58 57 55 55 53 50 43 35 30 29 33 39 44 47 41 37 37 33 34 34 35 36 34 31 31 32 32 32 33 32 29 28 31
7 8 11 16 21 25 28 32 36 42 46 56 57 52 49 48 47 38 35 38 36 40 49 53 44 39 39 37 35 36 39 38 37 32 33 38 38 35 36 35 31 30 31
7 3 5 10 16 20 26 31 35 38 38 42 47 58 55 47 47 45 39 37 29 42 36 60 45 43 40 39 39 39 40 41 39 40 39 38 39 39 38 35 34 32 35
15 11 10 10 12 12 17 21 26 31 36 39 38 41 47 54 52 46 43 45 36 37 35 29 51 45 46 43 42 44 44 43 41 39 33 36 41 41 41 37 35 37 34
17 15 15 14 16 16 16 16 10 14 25 32 33 35 36 44 48 46 39 44 47 46 39 39 42 46 46 48 47 48 46 43 42 42 37 32 33 38 37 38 37 35 36
46 40 28 19 10 14 17 15 11 13 18 20 24 27 34 37 39 45 52 56 49 42 45 47 48 53 51 54 50 51 48 48 47 44 41 36 40 39 41 41 40 38 38
35 36 40 44 43 35 26 17 9 12 14 16 23 31 36 33 34 41 39 45 46 40 52 46 52 54 58 55 52 56 51 51 52 48 47 46 41 43 44 45 42 42 41
30 31 29 28 30 34 36 35 31 24 12 4 13 22 25 29 33 36 42 45 44 42 48 52 52 54 54 58 59 62 56 55 52 51 56 51 44 44 44 45 44 42 40
27 27 26 24 23 25 24 21 23 27 30 27 24 20 5 6 18 33 33 32 38 38 40 48 41 42 54 51 55 48 56 59 53 49 45 52 45 43 45 45 46 43 41
28 27 26 24 23 21 20 20 18 17 17 17 16 18 16 18 19 14 9 5 2 21 25 34 31 43 44 42 40 50 42 42 44 47 49 49 45 44 45 47 45 45 44

GFSMA_700_spd_132.txt.gz
Wind_Speed
38 38 36 35 34 33 33 32 30 29 28 26 25 26 27 24 23 22 21 20 20 19 19 18 17 15 14 15 15 14 14 15 15 13 16 15 15 13 12 10 11 13 14
38 40 39 38 39 37 37 37 35 33 31 30 28 28 28 28 25 24 23 22 21 20 19 18 18 17 15 15 15 14 13 14 17 16 14 12 15 14 15 14 15 15 16
35 36 40 43 44 41 44 45 40 37 35 34 32 31 31 29 29 26 26 24 22 21 21 18 18 18 16 16 16 15 14 14 16 16 17 17 18 20 20 21 17 19 18
33 35 41 51 44 45 47 49 45 40 39 38 37 35 34 32 31 30 27 26 24 21 20 19 18 17 16 15 16 15 13 13 13 15 16 20 20 20 18 20 20 20 21
34 36 37 40 49 59 55 30 40 48 41 41 42 40 38 37 34 32 29 28 27 24 22 19 19 18 17 16 13 13 12 12 11 12 13 16 20 21 21 17 21 22 23
43 42 42 42 43 44 49 52 36 54 52 44 44 44 41 40 39 37 33 31 29 28 25 23 22 20 19 18 16 16 13 13 13 14 14 15 17 21 20 21 24 25 27
50 48 47 47 48 46 46 42 45 51 67 55 45 45 44 42 44 42 39 35 33 31 30 28 26 24 22 20 19 17 15 16 15 16 16 17 19 19 25 30 21 28 27
52 52 51 49 50 51 50 45 42 42 52 65 54 49 45 46 47 45 43 40 37 36 34 33 31 28 25 24 21 20 19 19 19 18 18 19 18 20 19 20 21 26 25
54 56 58 57 54 55 54 47 43 45 49 53 64 57 47 51 44 45 45 42 40 39 37 36 35 33 29 27 25 24 23 22 21 20 19 21 20 19 25 20 21 22 24
61 60 62 63 62 60 57 51 46 43 44 51 49 56 56 43 42 45 43 43 41 42 41 40 39 37 35 32 29 27 27 26 25 23 21 21 22 21 23 24 20 28 24
62 61 63 62 60 57 56 53 51 47 48 51 51 55 66 50 43 50 41 43 44 42 42 43 43 41 38 35 33 31 30 30 28 26 25 22 23 24 20 22 24 23 24
60 58 56 58 56 53 53 53 53 49 49 48 47 41 62 57 64 42 46 41 48 48 48 42 42 43 42 39 36 35 32 33 31 31 28 25 24 25 23 21 21 23 25
51 50 50 52 51 48 49 52 54 53 48 48 51 50 43 64 55 52 53 49 46 53 60 51 43 37 40 37 38 38 34 34 33 34 31 28 26 26 25 23 19 20 23
42 40 41 44 44 41 45 49 52 54 49 47 48 50 42 45 59 36 51 48 52 46 65 64 49 40 39 35 35 36 35 35 34 35 33 32 28 27 26 25 23 20 22
35 35 36 37 36 35 39 43 48 51 53 47 47 50 48 47 46 46 55 53 50 53 38 38 49 47 39 37 34 37 36 36 33 35 35 33 30 30 29 27 25 22 21
17 19 23 26 28 31 32 37 43 46 49 49 48 50 49 54 49 51 47 43 45 46 40 34 37 51 42 37 35 38 35 34 33 35 36 35 32 31 29 29 27 26 23
10 9 9 13 17 22 25 29 33 37 43 46 49 51 52 53 52 54 51 47 44 36 30 24 24 29 56 42 37 38 38 37 37 37 38 35 34 31 32 31 31 31 28
14 10 5 4 7 11 17 23 27 29 33 39 43 48 52 50 48 47 47 50 44 41 39 28 23 20 42 42 42 42 41 38 40 39 40 38 37 33 31 34 34 34 34
14 12 10 7 2 3 7 12 17 21 26 31 36 39 41 47 49 46 47 46 47 39 37 35 30 31 35 42 51 48 44 40 41 41 40 42 40 38 34 36 36 36 35
35 25 15 9 8 5 2 3 7 12 20 28 33 33 36 37 41 47 46 43 39 37 38 32 34 40 32 37 51 64 53 44 44 45 41 42 42 42 40 40 40 42 37
44 43 35 24 13 6 6 9 9 7 6 10 16 25 32 33 31 35 42 47 47 39 37 40 36 35 44 42 50 58 53 45 46 46 47 45 45 43 41 39 38 43 41
35 39 43 46 44 38 24 12 7 5 5 8 12 21 24 28 29 31 33 38 40 39 39 39 37 40 41 42 43 59 59 51 48 49 51 49 47 46 44 43 41 41 40
31 32 32 31 35 38 39 41 39 22 6 7 13 16 17 20 26 31 33 34 37 41 44 45 44 44 46 45 47 54 48 55 52 55 54 52 50 51 49 48 42 40 43
30 30 29 28 29 29 28 28 28 30 34 31 21 6 8 15 19 23 29 33 33 38 41 39 43 43 44 50 53 55 57 57 58 57 57 56 54 54 54 53 49 49 47
30 31 30 29 28 27 26 24 22 21 20 20 23 25 27 24 10 3 10 12 20 27 32 36 40 45 42 50 53 48 51 55 57 55 59 62 58 56 57 58 54 53 51
28 27 27 27 27 26 25 24 22 20 17 15 14 12 11 10 12 16 16 16 10 5 14 12 19 22 30 36 47 46 54 53 56 63 62 70 57 57 55 57 54 51 54

GFSMA_700_spd_135.txt.gz
Wind_Speed
32 34 40 39 38 37 36 34 34 32 31 29 29 28 25 24 24 24 23 23 21 20 20 19 18 19 18 19 20 21 18 17 17 16 14 14 14 15 14 12 10 11 13
29 37 42 38 38 39 40 38 37 36 34 32 31 31 30 27 26 25 25 26 25 23 22 21 20 20 20 17 18 19 20 19 18 19 18 18 14 14 15 16 14 13 14
26 30 41 42 42 41 42 45 43 42 42 36 35 34 33 32 30 28 28 28 28 26 25 23 22 21 22 19 20 20 20 18 17 18 20 19 18 17 19 17 18 17 16
31 28 30 34 36 36 48 50 47 42 37 39 39 37 35 34 33 31 31 31 31 30 28 27 24 23 23 22 21 21 20 17 16 14 15 17 18 20 20 20 20 19 17
39 37 35 34 36 36 36 33 37 57 47 28 40 40 38 37 36 35 36 34 33 33 32 29 27 25 24 23 23 21 21 18 16 14 14 14 14 16 20 22 23 20 20
45 44 43 41 41 42 41 39 34 32 38 53 36 42 44 41 40 40 39 39 35 35 34 33 29 28 26 25 23 21 20 19 18 17 15 15 14 15 18 23 23 23 21
48 48 49 49 48 47 46 44 38 36 33 27 27 53 47 49 47 44 44 44 40 37 37 35 33 32 30 27 27 26 23 21 19 18 18 18 18 17 19 19 23 27 29
51 50 51 51 50 49 48 48 44 39 35 34 38 37 55 64 55 50 48 48 43 39 40 39 38 36 34 32 30 29 27 24 22 22 22 21 20 20 20 21 21 17 23
55 54 52 52 53 53 50 50 49 47 44 38 39 37 49 66 65 63 49 53 47 44 42 43 42 41 39 37 35 33 30 28 26 25 24 25 24 22 21 21 22 25 24
58 59 59 58 58 58 57 56 54 52 52 48 42 43 43 51 54 60 58 53 56 46 45 47 46 45 44 42 39 36 34 32 30 29 28 28 27 26 24 23 23 23 30
54 58 61 65 64 62 62 60 56 53 53 52 47 45 43 44 49 55 62 52 60 51 48 48 48 48 47 46 44 42 38 36 35 33 31 30 29 28 28 25 24 23 26
52 52 55 57 59 62 62 60 58 53 54 54 51 48 47 44 45 53 53 45 60 50 45 48 48 46 46 47 48 47 44 42 39 37 35 33 32 31 29 30 26 23 22
46 47 52 54 54 56 59 60 56 53 55 56 54 50 49 45 42 46 44 59 53 61 48 44 46 41 43 47 48 50 47 44 42 39 37 36 35 33 32 32 29 26 22
34 36 40 46 47 49 50 51 49 49 53 54 56 52 52 47 47 43 38 42 62 49 51 49 53 52 52 49 45 50 50 48 44 42 37 38 37 36 35 33 32 30 24
16 18 23 28 33 37 39 39 39 41 49 50 52 52 53 54 43 45 41 47 55 62 56 58 52 61 55 58 54 47 50 47 45 43 42 40 40 37 35 35 32 32 29
10 13 13 13 16 21 25 28 29 35 39 42 42 43 47 41 51 46 38 48 46 46 58 40 59 53 50 42 66 55 46 41 45 44 42 39 39 39 36 36 35 35 31
12 9 9 7 5 5 12 20 25 29 31 33 35 40 42 46 44 48 42 44 43 40 48 34 35 34 19 27 32 64 51 43 45 43 41 41 41 39 37 34 35 35 34
11 9 9 7 6 4 4 11 18 21 25 28 32 34 38 42 42 39 35 36 37 28 39 30 23 19 29 26 26 45 53 47 46 42 42 41 42 41 38 35 36 34 34
20 15 15 15 13 8 5 2 8 14 18 22 24 28 32 35 37 42 48 47 43 37 34 33 28 31 32 31 30 45 51 56 40 43 42 44 45 44 41 39 40 39 36
37 30 21 15 14 14 11 8 6 4 7 15 21 23 25 29 30 32 38 43 42 42 41 38 33 30 33 37 35 30 54 50 60 47 44 43 46 46 44 42 44 42 41
35 40 39 33 24 17 14 10 9 8 8 9 9 12 18 23 23 25 29 34 38 42 40 38 34 33 31 37 40 46 50 49 53 56 55 46 48 49 46 46 45 45 43
29 29 29 29 32 39 42 34 25 12 5 1 7 9 15 14 16 17 21 26 33 30 34 39 37 37 38 42 37 48 48 51 47 53 61 63 53 50 48 49 49 47 47
29 29 29 28 27 27 28 29 32 36 36 22 5 7 7 9 11 23 21 22 23 25 32 36 36 42 40 44 44 40 43 45 52 55 54 57 62 60 58 48 51 51 50
29 29 29 29 28 27 26 25 24 21 22 23 24 31 26 15 7 12 18 22 26 30 32 36 39 44 44 51 49 50 47 47 52 48 52 60 58 55 55 55 54 55 55
28 28 28 27 27 26 26 24 22 21 19 17 17 16 15 13 17 19 21 15 7 13 22 29 31 31 40 45 45 45 48 44 52 57 58 55 55 60 57 55 59 59 63
27 26 25 24 24 22 22 23 22 22 20 18 18 17 15 15 14 12 8 8 11 16 16 15 8 8 17 27 39 42 46 49 58 60 61 54 54 59 64 57 63 68 75

GFSMA_700_spd_138.txt.gz
Wind_Speed
25 26 33 32 33 36 37 36 36 35 33 32 30 29 27 27 27 26 26 26 25 24 24 23 19 19 19 20 22 23 22 21 20 19 18 17 17 16 15 15 13 12 13
24 27 29 29 38 37 39 43 39 38 37 34 34 33 30 30 31 30 29 29 28 27 27 25 23 22 22 21 22 23 24 23 22 20 20 20 19 17 19 18 17 16 15
30 29 29 31 32 33 37 41 37 47 42 39 39 43 37 34 34 33 32 31 31 30 30 28 26 25 24 23 23 23 25 24 23 22 22 22 22 19 18 18 17 17 16
38 35 35 34 34 33 32 33 45 46 50 43 41 38 43 39 36 36 36 35 34 32 32 32 29 27 26 25 25 25 25 24 24 23 22 22 22 20 20 21 21 21 20
44 43 42 40 39 39 38 35 34 31 28 31 47 44 48 36 39 37 39 38 37 35 34 34 33 31 29 29 29 28 26 26 25 22 21 20 19 19 18 20 21 21 21
53 52 50 48 45 44 44 42 39 38 34 29 31 32 32 35 44 46 41 40 40 39 36 37 36 35 32 31 31 30 28 28 27 24 21 19 19 18 18 18 19 21 22
56 55 55 54 52 50 48 48 46 44 39 33 35 32 30 31 35 50 53 46 44 43 41 39 39 38 36 34 33 32 31 29 28 26 24 21 21 20 21 19 20 20 22
51 55 60 58 52 52 51 50 49 47 43 37 36 35 34 31 33 46 62 56 46 44 44 42 42 41 39 37 35 34 33 32 31 28 27 25 23 23 23 23 23 23 23
53 54 56 56 58 57 54 52 51 48 46 40 39 38 40 41 32 36 51 58 54 50 50 44 45 44 42 41 38 37 37 36 34 32 30 28 27 27 26 26 26 25 24
53 54 58 60 61 61 60 57 55 53 51 46 45 43 45 44 38 38 46 59 62 61 54 50 46 48 45 45 43 41 40 38 38 36 34 32 31 30 30 29 30 28 28
53 55 58 61 60 60 61 62 62 59 56 53 49 49 49 50 46 45 41 42 52 67 55 61 53 49 49 47 47 47 44 42 41 39 37 36 35 34 32 32 31 31 30
46 49 52 56 60 58 59 59 60 61 61 59 53 51 52 53 49 49 50 50 49 49 61 70 67 59 51 48 50 50 49 46 44 43 41 40 39 37 37 35 33 32 31
39 41 45 48 51 55 57 57 57 57 56 57 54 52 53 54 54 46 48 50 52 51 47 57 66 68 54 51 49 50 54 52 49 48 47 44 43 42 40 38 36 34 32
21 24 30 36 41 45 47 51 54 53 53 54 51 50 52 55 55 55 44 48 48 49 55 52 44 70 57 52 52 49 51 52 53 52 49 49 48 45 43 40 40 36 36
14 15 17 18 21 26 33 39 43 45 45 45 46 46 50 56 54 53 41 41 46 44 46 43 43 62 54 48 42 42 46 45 43 44 45 50 51 48 48 44 43 40 37
13 13 12 11 12 12 15 20 25 30 34 36 39 43 48 50 49 48 48 39 46 50 49 39 37 33 64 56 48 53 53 51 55 51 44 45 50 52 50 49 47 43 38
13 12 13 10 9 8 8 7 10 15 24 28 33 36 40 42 44 43 44 44 41 44 45 46 42 40 42 53 79 67 61 53 55 60 46 46 50 50 51 51 49 45 40
15 11 12 12 12 11 10 10 6 5 10 14 18 23 28 32 37 39 41 48 51 27 39 38 43 43 48 40 32 41 33 46 52 72 55 48 50 45 49 50 49 47 42
32 22 15 11 12 12 14 13 12 10 7 7 9 13 18 23 29 32 35 47 44 46 43 35 39 42 29 19 21 23 32 37 41 42 68 62 50 49 51 51 50 47 44
32 35 32 25 18 14 14 12 12 11 10 7 4 6 10 13 19 25 30 34 40 49 37 38 24 21 22 25 27 31 37 38 43 44 42 64 65 52 51 54 48 48 46
24 25 29 35 34 31 27 21 15 10 8 11 10 4 4 4 9 11 19 26 31 33 38 35 33 34 33 33 35 38 40 42 37 35 47 57 65 45 55 50 51 47 49
25 25 23 23 21 27 33 36 34 25 17 9 8 9 7 6 4 11 17 16 20 23 30 30 33 25 39 35 41 44 36 45 42 47 39 50 64 60 54 46 54 50 48
26 25 25 24 24 23 22 21 18 19 24 28 26 21 15 11 7 6 9 10 16 22 24 30 22 30 42 34 39 45 45 41 44 48 51 52 59 68 68 65 65 53 51
23 23 24 24 24 24 24 23 23 21 19 17 16 16 18 20 20 19 19 16 8 14 19 23 26 31 37 33 38 41 47 45 46 46 50 55 52 63 54 54 57 59 67
24 23 24 23 22 23 23 23 22 20 19 17 17 17 16 15 14 13 14 12 10 11 10 12 19 26 32 34 39 43 46 46 50 46 53 50 50 52 49 52 53 51 58
23 23 23 22 23 22 22 21 20 19 18 17 17 15 14 13 13 13 13 13 12 11 12 8 6 8 12 13 14 24 33 39 44 47 47 48 54 56 56 57 60 55 52

GFSMA_700_spd_141.txt.gz
Wind_Speed
22 24 26 27 28 40 36 33 34 33 34 34 37 40 38 33 29 29 26 30 25 25 24 24 23 21 21 21 21 22 22 23 22 21 19 18 17 16 15 14 14 14 13
28 28 27 27 29 33 33 41 44 29 37 38 37 37 36 37 31 32 32 33 29 27 26 26 26 24 24 23 22 22 23 24 24 23 22 21 20 19 17 17 17 16 15
37 36 33 32 34 36 34 34 37 40 47 40 39 44 42 40 36 39 34 31 34 31 29 28 28 27 26 27 25 24 25 25 25 25 24 23 22 22 21 19 18 18 17
45 43 42 40 40 38 39 39 37 35 37 41 47 39 44 51 49 26 33 34 33 36 32 31 30 29 29 28 29 27 27 26 26 28 27 25 24 22 24 21 20 20 19
52 52 50 48 47 44 42 43 43 41 37 36 35 32 32 47 60 49 41 42 34 35 38 35 33 32 31 30 30 30 28 28 28 28 28 27 25 23 22 21 21 22 22
56 57 57 55 53 51 49 47 48 46 44 40 39 39 32 31 30 32 33 39 46 43 42 38 39 37 35 33 33 32 32 31 30 30 29 27 26 24 22 21 20 20 22
52 53 55 58 59 58 53 50 49 49 49 44 44 42 36 36 32 31 29 32 45 47 42 44 44 42 38 35 35 34 35 34 32 31 30 29 27 25 23 22 20 20 20
52 54 56 56 56 57 58 54 52 51 50 48 47 44 41 39 39 33 27 32 37 47 48 49 47 45 41 40 38 36 36 37 35 33 32 31 30 28 26 25 22 21 21
54 54 55 56 58 59 58 58 56 52 51 48 48 47 41 41 37 41 33 30 32 46 53 50 46 48 42 44 43 37 37 37 38 36 34 34 32 30 29 27 25 24 23
51 53 54 56 58 58 60 60 60 60 57 53 48 49 47 42 33 28 27 33 35 38 52 60 56 49 46 44 46 45 38 38 39 39 37 38 36 34 32 30 29 29 28
46 49 52 55 57 60 60 61 60 60 60 60 54 51 50 47 46 45 42 28 31 35 39 48 56 56 51 46 47 49 47 39 39 42 41 40 39 37 35 33 32 32 31
39 41 45 47 50 54 55 57 59 59 60 59 57 56 54 53 50 51 50 50 46 41 37 41 50 61 56 52 46 55 49 47 42 43 43 43 43 41 39 37 35 34 33
26 28 32 37 41 45 46 46 50 54 55 56 55 55 56 57 54 54 55 54 50 48 46 41 40 43 54 57 57 57 61 51 49 46 46 45 45 45 43 41 39 37 35
19 19 20 21 22 24 29 34 40 44 48 52 53 52 53 54 56 55 55 54 52 47 46 52 48 46 42 48 57 57 67 59 53 55 47 48 48 47 46 45 42 40 39
14 15 16 17 17 17 18 20 24 29 38 42 46 47 48 49 50 54 56 55 53 46 50 42 48 44 47 49 50 54 58 65 59 63 45 46 49 51 49 48 47 46 47
13 14 14 14 12 10 10 9 10 14 19 27 35 40 41 45 48 51 54 56 49 53 51 43 40 44 42 39 45 46 52 59 63 71 53 48 45 45 48 50 52 48 47
16 12 12 14 12 10 8 6 4 6 6 7 13 21 29 36 42 48 51 51 47 45 50 41 39 45 41 41 47 48 52 63 51 66 59 44 45 41 41 43 48 50 50
32 25 18 11 12 12 11 10 7 7 8 6 3 6 12 19 26 32 37 39 45 45 45 48 23 36 42 42 42 42 31 59 71 69 55 41 45 45 43 47 46 48 48
32 35 30 23 14 15 16 15 15 13 9 5 4 4 5 9 14 19 26 32 38 39 44 47 40 36 28 39 38 38 37 46 53 58 68 61 52 53 55 59 53 50 48
23 24 30 33 34 32 28 20 17 16 14 7 5 3 3 5 7 11 17 26 28 36 42 47 46 47 37 25 38 40 47 49 38 34 34 55 48 44 47 55 66 57 49
23 24 24 23 23 26 33 35 31 25 18 15 16 12 7 4 3 5 6 13 20 27 35 33 37 37 37 46 23 19 30 30 40 30 33 31 36 43 53 52 56 64 52
23 24 25 25 25 25 26 25 23 26 30 29 24 19 13 10 6 5 6 8 12 15 17 18 22 32 45 49 37 25 28 20 28 29 31 36 36 41 48 47 52 62 67
21 22 23 23 24 24 25 24 24 22 22 18 18 22 21 21 21 13 4 3 5 10 14 16 16 20 21 26 35 36 36 35 39 35 43 36 36 49 50 46 44 54 64
19 20 21 22 22 21 22 22 22 22 21 20 19 18 16 14 12 13 15 15 13 11 6 9 15 18 22 25 24 28 29 36 45 42 45 51 44 45 52 39 37 39 48
19 20 21 21 21 20 21 21 21 20 20 20 21 21 20 18 16 15 13 11 9 8 10 12 12 10 11 17 24 28 29 32 34 36 42 47 48 49 49 50 55 52 50
15 16 18 19 19 19 19 19 19 20 19 19 19 19 18 18 19 19 18 16 15 14 14 12 10 12 14 16 17 17 17 19 21 26 32 37 44 49 50 51 54 56 55

GFSMA_700_spd_144.txt.gz
Wind_Speed
28 26 26 27 28 29 30 32 40 38 34 38 43 35 35 36 34 40 30 27 33 31 26 26 24 23 21 21 19 22 22 22 21 21 19 18 17 17 16 15 13 12 12
36 35 35 33 32 33 36 33 35 36 34 42 51 34 40 40 43 44 39 31 32 32 31 29 27 25 24 23 22 21 23 24 23 24 22 21 20 19 18 17 16 15 15
44 45 43 41 40 40 38 38 37 41 36 39 45 34 44 44 45 41 37 43 39 23 27 30 29 27 26 26 24 23 23 25 25 26 25 23 22 22 21 20 19 18 19
50 51 50 48 46 46 45 42 40 42 42 39 39 35 37 37 38 40 43 43 39 44 33 27 28 27 28 28 27 26 25 25 27 27 27 26 24 24 23 23 22 20 19
54 55 55 55 52 51 50 49 46 46 45 43 41 40 37 38 36 38 40 40 46 47 35 31 34 33 31 31 31 29 27 27 27 29 29 28 28 26 26 26 25 23 22
56 56 57 55 55 55 54 53 53 49 50 47 46 44 43 38 37 36 33 36 40 33 38 39 42 39 34 34 35 32 30 29 29 29 31 29 29 28 27 26 25 24 22
54 56 58 59 58 57 57 56 54 52 50 48 48 48 47 43 41 36 34 31 32 31 31 35 47 45 40 38 38 36 33 33 31 30 32 31 31 30 28 26 25 24 23
52 52 54 57 59 58 56 57 58 57 54 46 48 48 49 46 45 38 34 34 31 28 30 37 49 48 42 42 39 41 37 36 34 32 32 32 34 33 30 28 27 25 24
51 53 53 53 55 57 58 57 56 56 57 54 47 47 48 48 43 40 40 38 35 33 33 36 41 51 47 47 43 40 39 37 37 34 33 32 34 35 34 31 29 27 26
49 50 52 54 55 56 56 57 56 57 56 56 53 47 47 48 43 37 31 31 38 37 35 35 37 45 49 49 46 44 39 39 39 38 34 35 35 37 36 34 31 30 28
42 42 45 47 48 49 51 52 53 55 54 55 53 51 49 48 46 46 45 37 31 27 33 38 37 41 45 49 49 45 44 41 38 39 38 36 37 37 39 37 35 33 31
33 31 31 33 35 38 42 44 46 49 51 52 54 50 50 47 48 50 50 46 46 38 36 35 30 35 36 42 50 51 49 44 40 38 40 40 39 40 40 41 39 36 34
25 21 21 23 24 26 26 28 32 39 43 46 48 48 48 49 49 49 53 49 48 48 48 46 40 31 34 37 38 46 55 52 47 43 40 42 43 43 43 43 42 40 38
20 17 16 17 20 20 20 20 19 21 31 38 40 41 42 44 48 48 50 53 51 52 50 48 45 41 42 38 32 36 43 48 53 50 45 45 45 46 46 46 45 44 41
13 11 13 16 17 15 14 13 13 13 16 23 30 34 38 42 45 47 47 50 53 55 55 49 45 42 38 44 47 43 37 40 44 47 49 54 45 47 49 47 47 47 46
18 12 12 15 14 13 11 9 8 8 8 11 14 24 34 37 40 42 44 47 50 52 57 52 49 45 47 40 38 42 42 42 44 41 46 48 50 52 53 48 48 49 50
32 24 15 15 14 13 14 9 7 7 6 6 5 7 12 21 28 34 38 42 47 47 51 52 47 41 36 45 34 46 39 36 40 42 40 42 50 60 56 51 52 52 49
31 36 33 25 20 21 21 19 14 9 6 5 6 6 3 6 13 20 27 33 39 38 43 32 33 39 42 39 36 25 35 36 41 43 46 51 54 42 56 64 60 53 48
22 24 28 33 36 31 24 24 23 18 11 11 7 6 6 5 4 8 15 21 28 32 34 36 33 36 39 45 36 34 21 41 38 50 52 59 52 57 63 62 70 50 43
22 24 25 25 25 28 33 36 33 26 23 20 13 12 6 3 5 4 5 9 15 21 26 31 32 36 39 39 51 36 42 39 40 45 45 49 48 43 45 53 59 48 45
21 23 24 26 26 26 25 25 26 29 30 28 26 24 24 14 5 2 3 5 4 8 15 21 26 30 28 36 38 42 40 35 42 36 40 38 42 44 46 54 54 59 56
18 20 21 23 24 25 26 26 26 24 22 21 22 24 25 24 18 14 11 8 4 5 7 9 10 16 17 25 29 34 34 36 34 27 25 26 22 27 24 33 33 47 53
16 17 19 20 22 23 24 24 24 23 21 22 22 21 20 19 18 19 20 21 17 8 5 6 7 9 11 13 16 17 27 30 38 47 45 30 34 36 30 25 37 37 44
14 15 16 18 20 20 21 22 22 21 20 19 19 19 19 18 17 17 16 15 13 12 12 12 9 7 8 11 15 16 16 18 22 25 28 33 39 45 46 42 47 43 36
12 13 14 16 16 17 18 19 19 19 19 18 19 18 18 17 16 16 16 15 13 13 11 11 9 8 8 9 10 12 13 15 13 18 24 29 31 32 35 42 44 45 43
11 13 15 16 17 17 17 17 17 16 16 15 15 15 15 16 16 15 14 14 14 13 14 14 14 13 11 12 14 15 16 19 21 22 22 23 24 25 27 28 33 35 39

GFSMA_700_spd_147.txt.gz
Wind_Speed
31 32 32 31 31 31 32 32 33 34 37 40 37 33 37 41 41 46 34 30 26 29 27 25 24 23 24 23 22 20 22 23 23 22 22 20 18 17 16 14 14 13 13
39 40 39 39 38 39 38 38 38 37 37 37 39 39 43 41 40 41 42 41 31 27 27 31 27 28 27 27 25 23 22 24 23 24 24 23 21 19 18 17 17 16 15
46 47 47 46 46 45 44 44 43 43 44 42 39 40 44 43 34 32 35 30 38 42 29 37 34 24 32 29 28 26 25 24 25 24 26 25 23 21 21 19 19 19 18
51 50 50 50 50 51 49 48 48 48 48 48 46 41 41 44 34 31 37 37 34 28 29 37 38 42 39 35 29 29 28 27 26 26 26 27 26 25 24 22 22 22 21
53 55 56 56 53 52 52 51 51 52 51 50 50 47 46 43 38 37 31 28 29 33 31 35 40 31 33 35 30 32 32 30 28 28 26 26 29 27 28 26 25 24 24
52 54 56 58 59 57 53 53 54 52 52 50 52 51 49 47 41 38 36 29 28 28 29 34 37 45 34 40 36 33 33 32 30 30 29 28 28 28 29 29 28 27 24
50 53 55 57 58 59 58 54 52 54 51 50 48 49 51 51 48 42 38 34 31 28 30 30 30 35 37 40 42 33 34 33 33 32 31 29 29 28 28 30 30 29 26
51 53 55 56 57 57 58 57 54 53 53 49 48 47 48 47 49 46 41 38 35 33 34 32 31 31 34 41 42 38 39 37 35 34 33 31 31 31 29 30 31 31 29
48 49 51 54 55 56 55 55 54 51 51 48 47 46 45 47 46 44 43 42 38 38 37 36 37 35 34 37 46 43 44 40 36 34 34 33 32 33 33 33 32 32 32
50 49 45 45 46 47 47 48 49 49 49 49 44 45 45 46 45 45 40 40 42 41 40 40 40 38 38 40 43 46 46 43 39 38 37 35 35 34 35 35 34 33 33
51 45 37 34 33 33 34 35 38 41 44 45 46 42 45 45 44 45 42 38 37 33 37 44 43 39 41 36 42 44 47 43 44 41 39 37 38 37 37 37 37 36 35
44 36 29 26 25 25 24 24 25 28 34 37 41 41 42 44 45 45 46 43 40 39 34 31 33 39 37 35 35 38 45 46 47 44 41 38 39 38 39 39 39 39 38
37 27 22 21 22 23 22 21 21 22 23 26 32 36 37 40 44 46 47 45 44 43 44 41 37 31 27 33 29 30 33 40 46 47 43 41 40 40 40 41 41 40 40
34 22 15 15 17 18 17 17 16 15 15 16 20 26 30 34 41 45 48 47 44 43 44 43 46 44 41 34 37 31 28 32 36 44 49 46 43 43 44 43 42 43 43
35 21 14 14 15 16 15 13 12 11 10 11 12 15 23 28 34 41 45 46 45 45 44 45 43 42 43 42 42 40 38 39 35 40 37 50 55 48 48 48 45 45 46
39 31 21 18 18 18 15 12 12 10 9 9 9 9 10 13 24 33 40 43 44 45 45 44 45 42 42 40 39 38 38 36 47 46 43 44 39 58 58 55 54 47 48
29 33 35 26 19 20 20 18 14 11 10 10 11 9 6 5 9 20 30 35 38 40 43 42 41 42 43 41 41 42 45 46 37 41 45 42 38 35 40 61 62 52 51
23 24 25 31 33 29 24 23 19 18 18 13 10 11 9 7 3 5 14 21 26 31 34 34 27 29 33 38 39 40 39 39 31 41 34 37 35 41 42 34 49 35 55
21 22 23 21 23 26 32 32 28 27 24 19 18 9 8 9 7 6 2 9 17 23 25 26 26 26 25 25 31 35 42 46 38 35 24 40 35 44 48 42 45 43 50
17 19 21 23 25 26 25 25 27 29 30 31 29 23 14 9 8 8 9 2 4 9 14 20 23 24 22 25 28 31 33 31 45 47 35 33 26 36 42 48 51 48 47
14 17 19 20 21 21 23 25 26 25 23 23 24 27 25 22 18 12 6 7 8 5 1 4 8 11 14 21 20 21 28 31 32 37 38 38 35 34 36 38 41 44 48
14 16 17 18 20 20 22 23 24 23 23 23 23 22 20 22 25 25 22 16 11 6 3 2 5 7 9 13 19 21 25 29 31 35 32 32 35 33 26 28 25 30 30
12 14 15 17 18 19 20 21 21 21 21 21 21 21 20 20 17 17 18 17 17 13 7 4 1 4 4 7 6 7 9 10 15 19 24 25 31 34 45 34 32 36 43
11 12 14 16 18 18 20 20 21 21 21 20 19 18 18 17 15 16 17 14 14 13 10 8 8 6 5 4 3 4 4 6 10 13 16 19 22 24 27 31 33 36 35
9 11 13 15 16 17 18 19 19 19 20 20 20 20 19 18 17 16 15 13 12 10 9 8 7 6 7 8 8 9 9 10 11 12 14 15 17 18 20 22 27 34 32
7 10 12 13 15 17 18 18 18 18 18 17 18 19 18 17 16 15 14 14 14 13 13 14 13 12 12 12 12 13 15 16 17 18 18 20 21 22 25 27 28 29 31

GFSMA_700_spd_150.txt.gz
Wind_Speed
35 35 36 37 38 39 39 38 39 39 37 37 38 39 41 38 36 36 38 43 39 39 45 43 34 29 24 29 26 24 24 26 26 27 25 24 22 21 19 18 17 16 16
40 40 40 42 44 45 46 46 46 46 46 45 41 41 40 41 41 41 44 35 36 38 37 32 33 35 34 32 29 26 26 26 28 28 27 27 25 24 22 20 19 18 18
42 43 44 44 46 47 49 50 51 51 52 52 51 46 44 42 44 40 37 33 35 37 38 26 24 29 23 26 29 29 33 29 29 29 29 29 27 26 25 23 21 21 20
47 47 48 49 50 50 51 53 53 54 55 55 55 54 50 47 46 44 40 35 32 33 39 34 24 21 35 40 39 38 43 36 32 31 31 30 29 28 27 26 24 24 23
49 51 53 54 55 55 55 55 55 56 56 55 57 56 55 51 48 46 42 34 34 31 35 28 27 35 32 35 36 37 40 38 34 33 32 32 31 30 29 28 27 26 26
49 51 52 54 56 57 57 58 59 56 56 56 57 57 54 53 52 49 44 36 34 30 31 30 34 37 38 42 40 28 40 43 37 33 31 32 32 31 31 31 30 29 27
47 49 51 52 54 55 57 59 60 59 55 55 55 55 54 51 49 52 47 40 35 32 30 30 33 39 41 42 44 35 37 43 41 35 33 33 34 32 32 33 32 31 30
47 49 48 47 49 53 55 57 58 58 56 52 51 53 51 49 49 48 49 45 39 36 35 33 32 34 35 38 41 43 39 40 41 39 36 36 35 33 32 33 33 33 32
50 53 54 54 52 50 49 48 48 49 50 47 46 47 48 47 48 46 46 45 42 40 40 38 37 38 36 35 34 41 44 46 44 44 39 38 38 35 33 33 33 33 33
50 56 58 55 46 36 34 33 34 35 38 40 40 42 44 44 44 44 45 44 41 43 41 42 42 42 41 40 37 37 42 47 47 50 45 39 39 39 36 35 35 35 34
54 55 49 39 30 25 25 26 26 27 27 30 32 35 40 43 42 43 41 40 41 41 44 44 46 45 43 42 41 38 36 45 48 44 45 44 41 40 39 38 37 37 37
50 50 35 29 24 24 25 24 24 23 24 25 26 27 33 39 41 42 42 42 44 41 41 39 43 46 44 43 43 39 37 37 49 48 45 44 42 46 43 41 40 39 39
45 41 28 23 24 22 22 20 20 20 19 19 20 21 24 34 39 44 46 45 45 45 43 40 36 35 35 38 41 41 39 38 42 50 52 45 44 45 48 44 44 45 43
40 38 29 24 21 20 20 18 17 16 15 15 13 13 15 22 34 41 46 47 45 43 47 46 44 38 36 35 32 33 32 32 33 36 43 51 50 49 47 45 46 44 45
27 38 34 24 21 21 22 17 16 15 12 11 10 8 6 9 24 34 41 45 46 43 43 47 47 45 43 42 41 36 33 34 32 31 31 35 40 49 52 51 48 48 47
24 26 30 34 28 22 18 17 16 16 13 11 10 9 7 5 11 23 32 38 42 42 41 41 40 40 43 43 46 43 42 42 41 43 34 38 42 43 44 55 51 50 53
21 22 22 26 30 30 26 24 22 18 19 13 12 9 8 5 4 11 21 28 32 34 37 36 36 35 38 38 41 41 41 40 39 36 38 36 37 40 41 43 44 56 60
19 19 21 23 24 23 31 29 31 31 27 21 13 12 11 10 6 1 6 17 21 23 23 25 26 27 33 31 33 35 38 41 42 40 40 40 37 40 34 37 42 49 51
16 17 18 19 21 25 24 22 25 27 31 30 27 16 11 10 10 9 5 4 11 14 13 10 15 21 21 24 20 25 31 36 39 41 41 35 38 35 32 35 23 29 34
14 15 16 18 20 22 22 24 25 26 26 26 28 26 19 13 8 14 10 8 4 8 15 16 17 15 17 19 20 26 27 26 32 32 37 39 42 39 41 36 31 24 33
12 13 15 17 19 20 20 23 23 24 25 26 26 24 28 27 22 17 12 13 12 9 3 5 12 14 16 18 22 23 21 20 23 26 32 34 32 37 40 41 39 39 27
11 12 14 15 16 18 20 21 22 23 23 23 22 23 24 20 21 24 21 20 13 6 3 4 4 8 10 12 13 17 18 19 22 19 18 22 30 30 27 30 27 35 46
11 11 13 14 16 17 19 20 21 22 23 22 22 21 21 21 19 19 18 16 15 15 12 10 5 1 2 5 6 8 10 12 16 20 23 24 26 25 24 26 26 23 26
9 10 11 12 14 15 17 19 20 21 22 22 22 21 21 20 18 17 18 16 14 13 11 9 7 5 4 3 2 2 3 5 7 9 12 14 15 18 20 19 21 22 22
8 9 10 11 13 15 16 17 19 19 20 19 19 21 21 21 20 18 16 14 13 12 9 7 6 6 6 5 4 4 5 7 9 11 13 14 16 18 19 20 21 22 22
8 8 9 10 11 12 14 16 17 18 19 20 20 20 19 17 17 17 17 17 16 14 13 13 13 13 12 11 11 12 13 13 14 15 17 18 19 20 21 24 24 26 27